Location: Mountain Grove
(34.0887°N, 86.6172°W)
Time: 00:53:24
(UTC+00:00)

SEDSat Delta rocket - Pass Details

Date: 14 July 2020
Orbit: 533 x 1001 km, 31.4° (Epoch: 12 August)

Event Time Altitude Azimuth Distance (km) Brightness Sun altitude
Rises 01:42:11 0° 236° (SW) 3,050 6.9 -8.5°
Reaches altitude 10° 01:44:34 10° 228° (SW) 2,209 6.1 -8.9°
Maximum altitude 01:49:27 40° 160° (SSE) 1,153 4.1 -9.8°
Drops below altitude 10° 01:55:02 10° 92° (E) 2,520 5.7 -10.7°
Enters shadow 01:55:47 - 90° (E) 2,778 5.9 -10.8°
